Weather History for Edwards AFB North Base, CA

Change the Weather History Date:

Friday, September 20, 2013

  Actual Average (KEDW) Record (KEDW)
Temperature  
Mean Temperature 72 °F -  
Max Temperature 93 °F 88 °F 104 °F (2000)
Min Temperature 52 °F 54 °F 48 °F (1997)
Cooling Degree Days 8    
Growing Degree Days 22 (Base 50)    
Moisture  
Dew Point 31 °F    
Average Humidity 25    
Maximum Humidity 45    
Minimum Humidity 10    
Precipitation  
Precipitation 0.00 in - - ()
Sea Level Pressure  
Sea Level Pressure 29.77 in    
Wind  
Wind Speed 5 mph (SW)    
Max Wind Speed 25 mph    
Max Gust Speed 32 mph    
Visibility 10 miles    
Events      
Averages and records for this station are not official NWS values.
T = Trace of Precipitation, MM = Missing Value Source: NWS Daily Summary

Daily Weather History Graph

Daily Weather History Graph

Search for Another Location

Airport:

Trip Planner

Search our weather history database for the weather conditions in past years. The results will help you decide how hot, cold, wet, or windy it might be!

Date:

Astronomy

Sep. 20, 2013 Rise Set
Actual Time 6:38 AM PDT 6:50 PM PDT
Civil Twilight 6:12 AM PDT 7:15 PM PDT
Nautical Twilight 5:43 AM PDT 7:45 PM PDT
Astronomical Twilight 5:13 AM PDT 8:15 PM PDT
Moon 7:33 PM PDT (9/20) 7:53 AM PDT (9/20)
Length of Visible Light 13h 02m
Length of Day
12h 12m
Full, 98% of the Moon is Illuminated
Sep 20
Full
Sep 26
Last Quarter
Oct 4
New
Oct 11
First Quarter
Oct 18
Full

Hourly Weather History & Observations

Time (PDT) Temp. Dew Point Humidity Pressure Visibility Wind Dir Wind Speed Gust Speed Precip Events Conditions
12:55 AM 60.1 °F 19.0 °F 20% 29.78 in 10.0 mi Calm Calm - N/A   Clear
1:55 AM 57.9 °F 19.9 °F 23% 29.78 in 10.0 mi Calm Calm - N/A   Clear
2:55 AM 57.0 °F 19.9 °F 24% 29.77 in 10.0 mi Calm Calm - N/A   Clear
3:55 AM 55.0 °F 21.0 °F 27% 29.78 in 10.0 mi Calm Calm - N/A   Clear
4:55 AM 52.0 °F 21.9 °F 31% 29.78 in 10.0 mi NW 3.5 mph - N/A   Clear
5:55 AM 53.1 °F 26.1 °F 35% 29.79 in 10.0 mi Calm Calm - N/A   Clear
6:55 AM 54.0 °F 27.0 °F 35% 29.81 in 10.0 mi Calm Calm - N/A   Clear
7:55 AM 61.0 °F 28.9 °F 30% 29.82 in 10.0 mi Calm Calm - N/A   Clear
8:55 AM 66.0 °F 30.0 °F 26% 29.82 in 10.0 mi Calm Calm - N/A   Clear
9:55 AM 73.0 °F 30.9 °F 21% 29.82 in 10.0 mi Calm Calm - N/A   Clear
11:55 AM 84.9 °F 28.0 °F 13% 29.78 in 10.0 mi Calm Calm - N/A   Clear
12:55 PM 89.1 °F 26.1 °F 10% 29.77 in 10.0 mi SE 4.6 mph - N/A   Clear
1:55 PM 91.0 °F 26.1 °F 10% 29.75 in 10.0 mi SSW 8.1 mph - N/A   Clear
2:55 PM 93.0 °F 36.0 °F 13% 29.73 in 10.0 mi WSW 17.3 mph 24.2 mph N/A   Clear
3:55 PM 91.0 °F 35.1 °F 14% 29.73 in 10.0 mi WSW 23.0 mph 28.8 mph N/A   Clear
4:55 PM 87.1 °F 36.0 °F 16% 29.73 in 10.0 mi WSW 25.3 mph 32.2 mph N/A   Clear
5:55 PM 84.0 °F 33.1 °F 16% 29.73 in 10.0 mi WSW 25.3 mph 32.2 mph N/A   Clear
6:55 PM 79.0 °F 30.9 °F 17% 29.75 in 10.0 mi SW 17.3 mph 27.6 mph N/A   Clear
7:55 PM 75.0 °F 39.0 °F 27% 29.76 in 10.0 mi WSW 18.4 mph - N/A   Clear
8:55 PM 72.0 °F 44.1 °F 37% 29.78 in 10.0 mi SW 13.8 mph - N/A   Clear
9:55 PM 71.1 °F 45.0 °F 39% 29.78 in 10.0 mi WSW 13.8 mph - N/A   Clear
10:55 PM 69.1 °F 45.0 °F 42% 29.79 in 10.0 mi WSW 17.3 mph - N/A   Clear
11:55 PM 66.9 °F 45.0 °F 45% 29.78 in 10.0 mi SW 15.0 mph - N/A   Clear